Home   Weather   Labrador City   Past weeks

Flag for Canada Past Weather in Labrador City, Newfoundland and Labrador, Canada — Yesterday and Last 2 Weeks

Now
28 °F

Mostly cloudy.


Feels Like: 21 °F
Forecast: N/A
Wind: 7 mph from West

Location: Wabush Lake

Current Time: Apr 25, 2017 at 7:47:44 pm

Latest Report: Apr 25, 2017 at 7:00 pm


Visibility: 15 mi

Pressure: 30.32 "Hg (28.26 "Hg at 558m altitude)

Humidity: 37%

Dew Point: 5 °F

Location of Labrador CityLocation

Past Weather in Labrador City — Graph

°F

Labrador City Temperature Yesterday

Maximum temperature yesterday: 19 °F (at 12:21 am)
Minimum temperature yesterday: 5 °F (at 7:00 am)
Average temperature yesterday: 12 °F

High & Low Weather Summary for the Past Weeks

 TemperatureHumidityPressure
High43 °F (Apr 10, 6:00 pm)100% (Apr 10, 9:00 pm)30.55 "Hg (Apr 10, 9:00 pm)
Low-17 °F (Apr 18, 6:00 am)26% (Apr 12, 3:00 pm)29.61 "Hg (Apr 23, 10:00 pm)
Average23 °F67%30.14 "Hg
* Reported Apr 10 6:00 pm — Apr 25 6:00 pm, Labrador City, Weather by CustomWeather, © 2017

Note: Actual official high and low records may vary slightly from our data, if they occured in-between our weather recording intervals... More about our weather records

Advertising

Labrador City Weather History for the Previous 24 Hours

Scroll right to see more
 ConditionsComfort  
Time TempWeatherWind HumidityBarometerVisibility
6:00 pm
Tue, Apr 25
28 °FPartly sunny.8 mph34%30.34 "Hg15 mi
5:00 pm28 °FScattered clouds.9 mph34%30.34 "Hg15 mi
4:00 pm27 °FPassing clouds.12 mph36%30.37 "Hg15 mi
3:00 pm25 °FSunny.13 mph46%30.39 "Hg15 mi
2:00 pm23 °FPassing clouds.10 mph46%30.40 "Hg15 mi
1:00 pm19 °FScattered clouds.10 mph58%30.40 "Hg15 mi
12:00 pm18 °FPassing clouds.12 mph58%30.42 "Hg15 mi
11:00 am14 °FScattered clouds.10 mph67%30.41 "Hg15 mi
10:00 am12 °FPartly sunny.13 mph67%30.40 "Hg15 mi
9:23 am12 °FOvercast.16 mph67%30.39 "Hg15 mi
8:00 am9 °FPartly sunny.15 mph72%30.37 "Hg15 mi
7:00 am9 °FMostly cloudy.12 mph66%30.33 "Hg15 mi
6:00 am9 °FMostly cloudy.13 mph66%30.30 "Hg15 mi
5:45 am9 °FLight snow. Mostly cloudy.12 mph66%30.29 "Hg9 mi
5:33 am9 °FMostly cloudy.14 mph66%30.29 "Hg9 mi
5:00 am9 °FLight snow. Overcast.20 mph66%30.26 "Hg9 mi
4:00 am9 °FLight snow. Overcast.18 mph66%30.24 "Hg9 mi
3:00 am9 °FLight snow. Overcast.26 mph72%30.20 "Hg9 mi
2:00 am10 °FLight snow. Overcast.18 mph67%30.19 "Hg9 mi
1:00 am10 °FLight snow. Mostly cloudy.17 mph67%30.16 "Hg9 mi
12:32 am10 °FLight snow. Mostly cloudy.17 mph67%30.16 "Hg7 mi
11:40 pm
Mon, Apr 24
10 °FLight snow. Mostly cloudy.14 mph72%30.14 "Hg2 mi
10:00 pm10 °FSnow flurries. Overcast.14 mph61%30.13 "Hg10 mi
9:00 pm10 °FSnow flurries. Mostly cloudy.16 mph72%30.11 "Hg8 mi
8:00 pm12 °FSnow flurries. Partly sunny.16 mph62%30.09 "Hg10 mi
7:00 pm12 °FSnow flurries. Overcast.20 mph62%30.07 "Hg10 mi
Weather by CustomWeather, © 2017

See weather overviewHow to use our weather pages